Погода в Пензе

Погода в Пензе : погода сейчас, прогноз погоды и архив. Всё, что Вы хотите узнать о погоде в Пензе!

Хотите узнать прогноз погоды в Пензе? Тогда Вам сюда: Погода в Пензе

Поиск расширенной информации на нашем сайте:

Другие новости

Новости СМИ2

Главная страница сайта

Новости сайта

03.07.2017

Напоминаем, что на нашем специализированном сайте Метеоцентр.Азия вы можете получить высокодетализированные автоматические прогнозы погоды по пунктам России, СНГ и мира в авиационном формате (включающие направление и скорость ветра, видимость, явления погоды, количество и форму облачности, нижнюю и верхнюю границу облачности).

Рекомендуем: Нижегородская типография ОЛИВЕР: печать листовок.

Погода в Пензе - сегодня

Время (UTC), дата Ветер
(°,м/с) 
Видим.   Явления Облачность Т
(°С)
Тd
(°С)
f(%) Тe
(°С)
Pmin
(гПа)
dP
(гПа)
Po
(мм)
O2
(г/м3)
Тmin Tmax R s Состояние
почвы
00 18.09.17 тихо ()   10 км    ясно 
+10.1 +9.4 95 +10  1021.8  -0.6  751  290           
03 18.09.17 130 (ЮВ) 10 км    1/0 верхняя 
[Cc]
+10.8 +9.5 92 +12  1020.8  -0.9  750  289  +9.2        сухая 
06 18.09.17 150 (ЮВ) 10 км    5/0 верхняя 
[Cs]
+16.7 +11.4 71 +20  1019.5  -0.8  749  282           
09 18.09.17 200 (Ю) 10 км    9/0 верхняя 
[Cs]
+23.9 +8.7 38 +24  1017  -2.1  748  276           
12 18.09.17 200 (Ю) 10 км    8/0 верхняя 
[Cs]
+27.2 +9.6 33 +28  1014.4  -2.3  746  272           
18 18.09.17 250 (З) 10 км    3/0 верхняя 
[Ci fib]
+15.9 +10.6 71 +19  1014.1  -0.3  745  282           
21 18.09.17 220 (ЮЗ) 10 км    ясно 
+19.3 +8.1 48 +20  1013.1  -0.8  745  279           
00 19.09.17 200 (Ю) 10 км    ясно 
+17.9 +8.6 54 +19  1012.5  -0.7  744  280           
03 19.09.17 210 (ЮЗ) 10 км    3/0 верхняя 
[Cs]
+15.9 +8.9 63 +17  1012.7  -0.1  744  282  +15.9        сухая 
06 19.09.17 250 (З) 10 км    5/0 средняя, верхняя 
[Ac trans|Cs]
+20.8 +9.9 50 +22  1013.4  745  277  +15.8         
09 19.09.17 280 (З) 4{10}  10 км    8/5 600 м средняя, верхняя 
[Cu hum|Ac trans|Cs]
+22.7 +11.1 48 +25  1014.3  746  275           
12 19.09.17 260 (З) 10 км    8/0 средняя, верхняя 
[Ac As|Cs]
+24.1 +10 41 +25  1014.4  0.2  746  274           
15 19.09.17 270 (З) 10 км    8/0 средняя, верхняя 
[Ac trans|Ci fib]
+20.4 +8.3 46 +20  1015.8  1.1  747  279    +24.8       
18 19.09.17 290 (З) 10 км    1/0 верхняя 
[Ci fib]
+12.9 +8.7 76 +14  1018.2  1.9  748  286           
21 19.09.17 030 (СВ) 10 км    ясно 
+14 +7.8 66 +15  1019.4  1.2  749  286           
00 20.09.17 тихо ()   н/о    н/о 
+9.3 +7.5 89 +9  1021  1.1  750  291           
03 20.09.17 330 (СЗ) 10 км    3/0 средняя 
[Ac trans]
+6.6 +5.8 95 +8  1022.7  1.5  751  295  +6.5        сухая 
06 20.09.17 070 (В) 10 км    3/0 верхняя 
[Cs]
+12.7 +7.4 70 +13  1023.7  1.4  752  288           
09 20.09.17 050 (СВ) 10 км    3/0 верхняя 
[Cc]
+16.8 +6.8 52 +17  1023  -0.4  752  284           
12 20.09.17 050 (СВ) 10 км    1/0 верхняя 
[Cs]
+18.9 +6.5 44 +20  1022.2  -0.6  751  282           
15 20.09.17 070 (В) 10 км    3/0 верхняя 
[Cs]
+16.9 +7 52 +18  1022.8  0.5  752  284    +19.1       
18 20.09.17 070 (В) 10 км    ясно 
+12.8 +8.4 75 +14  1024.1  0.9  752  288           
21 20.09.17 060 (СВ) 10 км    ясно 
+10.4 +8 85 +12  1024.5  0.2  753  291           
00 21.09.17 070 (В) 10 км    ясно 
+8.9 +7.6 92 +10  1025.1  0.5  753  293           
03 21.09.17 070 (В) 10 км    1/0 верхняя 
[Ci fib]
+7.4 +5.9 90 +8  1026.3  754  295  +7.4        сухая 
Время (UTC), дата Ветер
(°,м/с) 
Видим.   Явления Облачность Т
(°С)
Тd
(°С)
f(%) Тe
(°С)
Pmin
(гПа)
dP
(гПа)
Po
(мм)
O2
(г/м3)
Тmin Tmax R s Состояние
почвы

Для получения пояснительной информации подведите курсор к названию столбца.

ПОГОДА в Пензе - архив

Всё, что Вы хотите узнать о погоде в Пензе - удобно и подробно!

Выберите нужную дату (начиная с 1 января 2015* года) и нажмите кнопку "Найти".
Будут отображены архивные сводки погоды по пункту Пенза, начиная с указанной даты.


Отображать данные в формате CSV (для использования в таблицах Excel)


Внимание! Наш архив погоды предназначен исключительно для личного некоммерческого использования в познавательных целях. Если Вам необходимы официальные справки о состоянии погоды (для производственных, юридических, коммерческих и т.п. целей), обращайтесь в органы Росгидромета.

*Примечание: данная дата относится к архиву по метеостанциям СССР (Россия, СНГ, Балтия).
Архив по метеостанциям Зарубежной Европы и Азии (кроме Китая) хранится 10 дней, по другим регионам земного шара (Китай, Африка, Америка, Австралия, Океания) - 1 день.

Пенза - район местоположения метеостанции


Название, широта, долгота, высота метеостанции:
Пенза (Терновка) 53.1°ш. 45°д. 177 м над ур. моря [Российская Федерация]

Дополнительная информация

В oтличие oт бoльшинства пoгoдных сайтoв мы публикуем пoдрoбную метеoинфoрмацию в детальнoм прoфессиoнальнoм фoрмате.

Характеристики температуры и влажнoсти вoздуха измеряются на высoте 2 м в тени вдали oт зданий и деревьев.
Скoрoсть ветра измеряется на высoте 10 м (на урoвне рoста челoвека скoрoсть ветра ниже в 1.5-2 раза). Если метеoстанция нахoдится в гoрoде или в лесу, тo скoрoсть ветра занижена на 2-4 м/с пo сравнению с oткрытым местoм. Скoрoсть ветра над акватoриями крупных рек и oзёр, а также на вершинах хoлмoв на 2-5 м/с выше, чем в oбычных услoвиях.
Атмoсфернoе давление в разных тoчках местнoсти мoжет значительнo oтличаться oт давления на метеoстанции, в зависимoсти oт услoвий рельефа (при пoдъёме на 10 м давление пoнижается примернo на 1 мм рт.ст.).